Overview Statistics Trail Chart Weather Telemetry Raw packets
 

This is the latest recevied weather packets stored in our database for station/object HS3MXC-2. If no packets are shown the sender has not sent any weather packets the latest 10 day(s).

<< 40 41 42 43 44 45 46 >>
Time Temp. Humidity Pressure Rain* Wind** Luminosity Snow
1777359919 25° C 41% 992.2 hPa - - - -
1777359611 25° C 42% 991.8 hPa - - - -
1777359304 25.56° C 41% 992.2 hPa - - - -
1777358689 26.11° C 41% 992.3 hPa - - - -
1777358382 25.56° C 42% 992.5 hPa - - - -
1777358066 26.11° C 42% 992.4 hPa - - - -
1777357759 26.11° C 41% 992.4 hPa - - - -
1777357453 26.11° C 41% 992.5 hPa - - - -
1777357146 26.11° C 41% 992.8 hPa - - - -
1777356840 26.11° C 40% 992.9 hPa - - - -
1777356224 26.67° C 40% 993.1 hPa - - - -
1777355610 28.33° C 39% 993.3 hPa - - - -
1777355303 28.33° C 36% 993.4 hPa - - - -
1777354996 28.33° C 36% 993.6 hPa - - - -
1777354689 28.33° C 36% 993.8 hPa - - - -
1777354074 28.33° C 37% 994.2 hPa - - - -
1777353767 28.33° C 37% 994.4 hPa - - - -
1777353460 28.33° C 37% 994.5 hPa - - - -
1777352842 28.89° C 38% 994.7 hPa - - - -
1777352534 28.89° C 39% 994.8 hPa - - - -
1777352227 28.89° C 40% 994.9 hPa - - - -
1777351921 28.89° C 40% 995 hPa - - - -
1777351614 28.89° C 41% 995.2 hPa - - - -
1777350993 28.89° C 42% 995.2 hPa - - - -
1777350685 28.89° C 42% 995.4 hPa - - - -

* Rain since midnight (hover to see other rain measurements)
** Current wind speed in m/s (hover to see current wind gust speed)